SCP
0 0 0 0 0 0 0 0 0 0 0 0 0 0 0 0 0 0 0 0 0 0 0 0 0 -0 0 0 0 0 0 0 0 0 0 0 0 0 0 0 0 0 0 0
-0 0 -0 0 0 0 0 -0 -0 0 0 0 0 0 0 0 0 0 0 0 0 0 0 0 0 0 0 0 0 0 0 0 0 0 0 0 0 0 0 0 0 0 0 0
-0 -0 0 -0 -0 -0 -0 0 0 0 0 0 0 0 0 0 -0 0 0 0 0 0 0 0 0 0 0 0 0 0 0 0 0 0 0 0 0 0 0 0 0 0 0 0
0 0 0 0 -0 0 0 0 -0 -0 -0 0 -0 0 0 0 0 -0 -0 -0 0 0 0 0 0 0 0 0 0 0 0 0 0 0 0 0 0 0 0 0 0 0 0 0
0 0 0 -0 -0 0 -0 -0 -0 0 0 0 -0 -0 0 -0 -0 -0 -0 0 -0 -0 0 0 0 0 0 0 0 0 0 0 0 0 0 0 0 0 0 0 0 0 0 0
0 0 0 0 0 -0 -0 -0 -0 0 0 0 0 0 0 -0 -0 -0 -0 0 0 0 0 0 0 0 -0 0 0 0 0 0 0 0 0 0 0 0 0 0 0 0 0 0
0 0 0 0 0 0 0 0 0 0 0 0 0 0 0 0 0 0 -0 0 0 0 0 0 0 -0 -0 -0 -0 0 0 0 0 0 0 0 0 0 0 0 0 0 0 0
0 0 0 0 0 0 0 0 0 0 0 0 0 0 0 0 0 0 0 0 0 -0 0 0 -0 -0 0 -0 -0 0 0 0 0 0 0 0 0 0 0 0 0 0 0 0
0 0 0 0 0 0 0 0 0 0 0 0 0 0 0 0 0 0 0 0 0 0 0 0 0 0 0 0 0 0 0 0 0 0 0 0 0 0 0 0 0 0 0 0
0 0 0 0 0 0 0 0 0 0 0 0 0 0 0 0 0 0 0 0 0 0 0 0 0 0 0 0 0 0 -0 -0 -0 0 0 0 0 0 0 0 0 0 0 0
0 0 0 0 0 0 0 0 0 0 0 0 0 0 0 0 0 0 0 0 0 0 0 0 0 0 0 0 0 0 0 0 0 0 0 0 0 0 0 0 0 0 0 0
0 0 0 0 0 0 0 0 0 0 0 0 0 0 0 0 0 0 0 0 0 0 0 0 0 0 0 0 0 0 0 0 0 0 0 0 0 0 0 0 0 0 0 -0
0 0 0 0 0 0 0 0 0 0 0 0 0 0 0 0 0 0 0 0 0 0 0 0 0 0 0 0 0 0 0 0 0 0 0 0 0 0 0 0 0 0 -0 -0
0 0 0 0 0 0 0 0 0 0 0 0 0 0 0 0 0 0 0 0 0 0 0 0 0 0 0 0 0 0 0 0 0 0 0 0 -0 -0 -0 -0 -0 -0 -0 -0
0 0 0 -0 -0 -0 -0 -0 -0 0 0 0 0 0 0 0 0 0 0 0 0 0 0 0 0 0 0 0 0 0 0 0 0 0 -0 -0 -0 -0 -0 -0 -0 0 0 0
0 0 0 0 0 0 0 0 0 -0 -0 -0 -0 -0 0 0 0 0 0 0 0 0 0 0 0 0 0 0 0 0 -0 -0 0 -0 -0 -0 -0 -0 0 0 0 0 0 0
0 0 0 0 0 0 0 0 -0 0 0 0 0 0 0 0 -0 -0 -0 -0 -0 -0 0 0 0 0 0 0 0 0 0 0 0 0 0 0 0 0 0 0 0 0 0 0
0 0 0 0 0 0 0 0 0 -0 0 -0 -0 0 0 0 0 0 0 0 0 0 0 0 0 0 0 0 0 0 0 0 0 0 -0 -0 -0 -0 -0 -0 -0 -0 -0 -0
-0 0 0 0 0 0 0 0 0 0 0 0 -0 -0 0 0 0 0 0 0 0 0 0 0 0 0 0 0 0 0 0 0 0 -0 -0 -0 -0 -0 0 0 0 0 0 0
0 0 0 0 0 0 0 0 0 0 0 0 0 0 0 0 0 0 0 0 0 0 0 0 0 0 0 0 0 0 0 0 0 -0 -0 0 0 0 0 0 0 0 0 0
0 0 0 0 0 0 0 0 0 0 0 0 0 0 0 0 0 0 0 0 0 0 0 0 0 0 0 0 0 0 0 0 0 -0 0 0 0 0 0 0 0 0 0 0
0 0 0 0 0 0 0 0 0 0 0 0 0 0 0 0 0 0 0 0 0 0 0 0 0 0 0 0 0 0 0 0 0 0 0 0 0 0 0 0 0 0 0 0
0 0 0 0 0 0 0 0 0 0 0 0 0 0 0 0 0 0 0 0 0 0 0 0 0 0 0 0 0 0 0 0 0 0 0 0 0 0 0 0 0 0 0 0
0 0 0 0 0 0 0 0 0 0 0 0 0 0 0 0 0 0 0 0 0 0 0 0 0 0 0 0 0 0 0 0 0 0 0 0 0 0 0 0 0 0 0 0
0 0 0 0 0 0 0 0 0 -0 -0 -0 -0 -0 -0 0 0 0 0 0 0 0 0 0 0 0 0 0 0 0 0 0 0 0 0 0 0 0 0 0 0 0 0 0
0 0 0 0 -0 -0 -0 0 0 -0 -0 -0 -0 0 0 0 0 0 0 0 0 0 0 0 0 0 0 0 0 0 0 0 0 0 0 0 0 0 0 0 0 0 0 0
Wind_Speed_500mb
8 5 7 5 7 6 6 14 23 28 21 19 25 40 44 49 35 31 31 33 41 51 48 42 40 45 51 52 65 63 61 71 60 53 53 53 55 53 52 49 50 50 53 54
3 9 7 6 4 1 3 16 20 19 3 15 29 46 43 23 17 29 33 46 53 58 53 43 38 41 45 54 53 63 56 61 62 58 54 55 53 52 48 51 55 55 57 59
5 3 4 4 6 9 12 16 13 12 24 28 21 24 7 2 27 26 34 41 42 44 48 42 36 33 35 49 56 54 57 56 61 59 53 55 54 55 54 54 55 53 55 63
3 3 7 9 11 9 13 7 17 19 16 11 12 12 3 18 20 27 39 56 52 35 27 23 24 17 18 26 40 53 48 52 53 55 54 55 54 50 49 49 44 49 55 60
4 6 6 10 6 12 6 2 19 18 15 17 2 8 5 20 28 43 47 61 54 35 34 28 24 21 8 12 22 27 38 42 38 47 51 50 50 47 46 49 53 54 59 67
12 6 7 5 9 18 18 17 18 7 6 8 3 5 2 15 17 28 37 43 38 36 35 38 22 21 19 8 15 23 36 42 41 46 44 38 36 35 35 39 44 47 46 47
7 6 6 11 7 5 5 8 5 4 5 6 6 5 7 18 16 13 26 34 32 35 49 46 45 41 39 33 15 16 23 29 33 34 32 27 29 28 29 29 20 13 10 12
10 3 9 14 6 4 2 2 6 8 8 16 3 12 4 13 20 18 24 25 27 26 41 48 48 51 53 41 11 10 18 25 30 32 28 25 29 29 26 21 20 11 9 2
9 5 2 12 7 5 1 5 7 7 10 9 3 5 7 14 8 13 17 21 26 30 31 39 42 47 46 48 48 30 27 25 22 22 24 33 32 31 32 38 28 22 15 14
2 11 5 2 7 17 10 9 5 4 7 7 4 5 6 11 13 9 12 21 26 26 28 30 30 31 37 44 49 45 50 31 24 28 30 36 39 35 33 33 28 22 16 13
2 3 1 5 13 5 7 5 8 5 6 6 9 3 16 20 16 10 12 19 20 23 22 22 25 26 27 29 36 39 47 44 37 37 29 32 32 25 22 13 14 9 8 14
1 6 11 6 6 2 6 6 5 7 4 6 7 9 21 19 17 15 14 12 5 14 22 20 22 22 24 22 23 31 36 37 36 33 24 27 22 14 6 3 3 5 8 13
7 5 11 5 6 5 9 9 5 6 5 13 7 1 9 17 17 17 16 15 9 5 8 17 12 13 17 18 23 26 28 31 29 25 24 23 22 17 15 13 12 13 13 16
8 7 16 16 16 5 15 12 12 10 7 6 19 18 14 22 22 23 21 18 16 12 10 8 11 13 14 16 18 19 21 25 25 25 25 24 24 23 21 19 18 20 21 22
6 12 13 30 40 36 37 37 29 22 23 14 6 14 19 14 22 26 23 19 19 16 12 9 6 8 12 13 15 16 17 19 21 21 20 22 23 22 21 21 22 23 24 25
5 8 9 19 15 13 23 29 29 33 32 31 37 42 26 30 16 21 26 24 24 21 15 13 8 6 7 10 11 12 14 16 19 20 22 23 23 24 24 26 27 29 30 32
7 6 7 11 7 24 22 19 31 18 19 23 21 13 6 14 21 31 29 29 28 23 18 16 12 9 9 7 7 8 11 15 18 21 23 23 24 25 27 30 33 36 40 42
9 7 5 12 19 7 6 5 9 24 19 31 22 17 14 14 15 22 31 32 31 28 26 22 17 13 11 9 8 8 10 14 18 22 24 27 31 33 35 39 42 43 44 44
29 10 7 7 7 22 5 8 10 12 6 18 35 30 30 16 12 32 37 40 33 27 27 25 21 17 14 13 12 8 10 14 18 23 27 30 32 34 36 39 41 41 42 42
11 13 9 2 8 8 4 6 9 7 5 10 14 15 16 17 14 12 9 39 37 33 30 27 22 19 18 18 15 11 12 16 20 25 27 30 32 33 34 36 38 38 37 38
8 8 22 18 11 20 7 11 13 5 6 9 6 10 11 16 23 8 8 20 37 34 31 28 26 24 23 21 15 12 14 18 22 27 30 33 34 34 35 36 37 36 35 35
17 15 11 10 12 18 15 11 10 4 4 4 6 14 17 28 31 31 19 20 29 34 34 31 30 28 26 21 16 14 15 19 24 29 32 34 35 35 34 34 34 31 32 36
11 13 6 18 12 2 27 18 17 17 16 17 29 31 33 31 35 42 36 32 32 33 32 31 31 30 27 21 18 17 18 21 25 29 32 34 32 31 30 30 31 33 34 36
14 15 10 4 12 35 45 51 48 50 55 49 47 42 37 43 37 38 45 45 43 41 40 37 36 34 28 24 22 21 22 24 24 25 28 29 29 28 27 28 31 35 37 40
6 19 12 19 41 48 53 49 40 21 19 28 35 29 26 32 42 47 49 51 53 49 45 41 38 34 29 27 25 24 23 23 23 25 27 29 30 30 32 33 34 35 34 34
32 23 17 17 26 32 39 25 26 30 44 51 44 48 51 49 50 49 53 54 52 52 48 44 39 36 31 28 26 25 25 24 24 26 26 29 31 32 33 35 36 35 38 42
Wind_Direction_500mb
29 75 54 57 42 33 348 297 292 286 295 292 282 293 295 305 306 312 305 300 299 299 299 292 295 296 256 244 244 243 242 233 229 232 233 233 237 242 248 255 261 265 264 261
156 81 77 103 108 8 358 311 304 301 321 290 296 297 295 308 323 322 314 311 308 305 305 298 292 293 268 245 245 243 241 235 228 230 233 236 238 243 250 256 261 264 263 262
15 71 138 245 238 274 285 268 291 283 313 283 299 282 275 34 327 322 337 336 320 316 308 307 300 283 269 247 244 244 242 235 229 228 233 233 236 243 250 256 261 264 264 262
277 123 217 251 270 227 299 230 257 277 320 320 350 297 274 337 328 346 349 345 331 339 345 354 342 311 283 268 257 244 239 238 229 224 227 231 238 245 256 267 266 268 270 270
76 201 238 271 271 194 292 199 283 282 266 302 150 258 280 347 335 340 344 336 347 354 5 32 28 12 330 259 246 235 234 232 223 222 226 232 241 251 258 267 275 282 286 284
257 211 252 275 286 244 277 304 296 245 248 257 192 269 331 354 331 330 338 349 2 12 12 29 31 38 20 318 235 229 221 219 215 218 223 231 248 257 265 270 281 291 292 287
295 202 224 233 285 181 210 307 318 242 222 330 175 233 357 340 348 328 336 349 349 14 29 26 24 36 34 10 325 245 224 213 214 216 222 236 246 246 254 266 277 283 285 318
349 261 196 168 245 296 244 315 331 308 334 314 162 311 355 349 18 14 8 355 3 1 27 25 25 25 40 22 23 114 163 200 206 206 216 217 222 230 237 242 228 197 175 104
335 286 226 207 208 232 100 300 347 269 237 272 296 209 189 349 358 7 357 348 347 10 14 15 14 20 24 28 46 86 123 155 191 205 214 213 212 212 223 224 232 243 260 270
33 289 234 71 194 231 249 340 241 194 309 304 256 271 304 313 317 10 341 329 339 350 2 9 8 13 22 20 38 63 87 113 140 173 201 202 206 214 198 195 197 217 238 264
269 240 222 246 204 215 186 208 233 280 242 305 314 268 192 212 217 234 257 299 337 351 357 6 9 26 35 18 40 52 69 77 81 95 114 138 143 145 150 168 209 213 273 267
81 307 280 272 111 320 289 274 278 279 185 250 288 271 175 209 222 228 209 237 277 330 345 354 6 18 38 48 39 54 68 73 80 70 62 68 79 84 72 74 42 15 320 313
163 226 296 201 153 143 236 194 233 267 302 234 267 342 183 219 232 230 211 216 240 257 329 345 3 26 30 35 48 58 61 71 74 82 84 81 79 77 63 49 24 12 353 340
195 247 239 258 293 316 262 226 219 205 258 300 247 284 225 221 226 221 216 213 225 266 296 330 346 11 31 42 53 60 61 63 61 54 54 53 48 40 32 22 7 354 345 338
243 269 260 263 269 271 267 266 246 219 232 251 4 261 288 255 223 225 226 215 223 237 242 282 312 341 19 30 42 47 52 52 54 52 45 38 32 23 12 1 355 353 347 340
197 274 301 285 270 252 255 254 242 241 245 252 263 276 266 250 224 217 219 220 232 236 234 268 309 343 354 6 18 30 33 31 33 29 26 22 15 8 3 359 355 351 350 349
215 255 312 272 312 303 272 250 211 216 213 218 218 237 171 202 220 227 226 226 233 236 237 252 276 292 304 325 356 12 17 16 14 12 9 6 5 4 1 357 356 355 352 351
228 215 237 288 313 263 57 133 181 223 247 222 264 249 229 238 241 244 231 228 229 231 237 242 255 263 275 296 315 340 354 358 0 359 358 360 2 360 357 354 352 351 352 351
224 232 259 274 282 291 218 189 190 201 297 223 239 263 252 243 286 268 241 230 228 231 238 239 247 253 266 275 281 301 331 347 351 354 355 355 353 351 347 344 343 345 344 340
184 256 263 267 277 265 79 167 171 158 246 172 213 276 260 196 242 255 251 226 225 229 233 234 245 252 261 270 278 303 326 337 343 346 347 344 341 338 336 336 334 335 334 333
163 200 232 242 269 278 242 150 152 245 93 162 222 301 218 215 234 233 232 218 219 226 226 231 238 244 248 254 265 291 313 327 331 335 336 336 333 331 330 330 328 331 333 334
184 184 203 194 225 267 148 131 211 47 165 192 296 322 281 261 254 251 243 216 212 218 223 231 235 242 248 255 270 288 302 313 322 327 331 331 329 326 326 327 327 332 333 334
232 217 194 214 233 80 196 244 233 256 276 286 294 288 290 276 265 245 242 232 228 228 232 238 241 245 250 260 272 284 294 303 313 324 328 327 326 325 324 324 325 332 338 340
221 195 234 245 242 251 253 252 261 277 277 284 286 287 280 274 273 266 250 241 235 233 234 238 239 244 249 256 265 275 286 297 307 318 321 325 326 326 323 325 327 332 335 337
249 164 217 256 274 276 274 262 262 273 275 299 301 294 293 289 280 271 262 250 242 238 235 235 238 241 246 253 264 274 284 298 310 317 320 327 331 332 331 332 332 334 335 328
209 221 216 238 250 243 264 259 282 292 300 304 296 285 283 285 281 274 267 259 251 239 233 235 239 242 248 255 265 275 286 292 297 303 314 324 330 333 333 331 331 333 334 331
Wind_Speed_850mb
8 5 7 5 7 6 6 14 23 28 21 19 25 40 44 49 35 31 31 33 41 51 48 42 40 45 51 52 65 63 61 71 60 53 53 53 55 53 52 49 50 50 53 54
3 9 7 6 4 1 3 16 20 19 3 15 29 46 43 23 17 29 33 46 53 58 53 43 38 41 45 54 53 63 56 61 62 58 54 55 53 52 48 51 55 55 57 59
5 3 4 4 6 9 12 16 13 12 24 28 21 24 7 2 27 26 34 41 42 44 48 42 36 33 35 49 56 54 57 56 61 59 53 55 54 55 54 54 55 53 55 63
3 3 7 9 11 9 13 7 17 19 16 11 12 12 3 18 20 27 39 56 52 35 27 23 24 17 18 26 40 53 48 52 53 55 54 55 54 50 49 49 44 49 55 60
4 6 6 10 6 12 6 2 19 18 15 17 2 8 5 20 28 43 47 61 54 35 34 28 24 21 8 12 22 27 38 42 38 47 51 50 50 47 46 49 53 54 59 67
12 6 7 5 9 18 18 17 18 7 6 8 3 5 2 15 17 28 37 43 38 36 35 38 22 21 19 8 15 23 36 42 41 46 44 38 36 35 35 39 44 47 46 47
7 6 6 11 7 5 5 8 5 4 5 6 6 5 7 18 16 13 26 34 32 35 49 46 45 41 39 33 15 16 23 29 33 34 32 27 29 28 29 29 20 13 10 12
10 3 9 14 6 4 2 2 6 8 8 16 3 12 4 13 20 18 24 25 27 26 41 48 48 51 53 41 11 10 18 25 30 32 28 25 29 29 26 21 20 11 9 2
9 5 2 12 7 5 1 5 7 7 10 9 3 5 7 14 8 13 17 21 26 30 31 39 42 47 46 48 48 30 27 25 22 22 24 33 32 31 32 38 28 22 15 14
2 11 5 2 7 17 10 9 5 4 7 7 4 5 6 11 13 9 12 21 26 26 28 30 30 31 37 44 49 45 50 31 24 28 30 36 39 35 33 33 28 22 16 13
2 3 1 5 13 5 7 5 8 5 6 6 9 3 16 20 16 10 12 19 20 23 22 22 25 26 27 29 36 39 47 44 37 37 29 32 32 25 22 13 14 9 8 14
1 6 11 6 6 2 6 6 5 7 4 6 7 9 21 19 17 15 14 12 5 14 22 20 22 22 24 22 23 31 36 37 36 33 24 27 22 14 6 3 3 5 8 13
7 5 11 5 6 5 9 9 5 6 5 13 7 1 9 17 17 17 16 15 9 5 8 17 12 13 17 18 23 26 28 31 29 25 24 23 22 17 15 13 12 13 13 16
8 7 16 16 16 5 15 12 12 10 7 6 19 18 14 22 22 23 21 18 16 12 10 8 11 13 14 16 18 19 21 25 25 25 25 24 24 23 21 19 18 20 21 22
6 12 13 30 40 36 37 37 29 22 23 14 6 14 19 14 22 26 23 19 19 16 12 9 6 8 12 13 15 16 17 19 21 21 20 22 23 22 21 21 22 23 24 25
5 8 9 19 15 13 23 29 29 33 32 31 37 42 26 30 16 21 26 24 24 21 15 13 8 6 7 10 11 12 14 16 19 20 22 23 23 24 24 26 27 29 30 32
7 6 7 11 7 24 22 19 31 18 19 23 21 13 6 14 21 31 29 29 28 23 18 16 12 9 9 7 7 8 11 15 18 21 23 23 24 25 27 30 33 36 40 42
9 7 5 12 19 7 6 5 9 24 19 31 22 17 14 14 15 22 31 32 31 28 26 22 17 13 11 9 8 8 10 14 18 22 24 27 31 33 35 39 42 43 44 44
29 10 7 7 7 22 5 8 10 12 6 18 35 30 30 16 12 32 37 40 33 27 27 25 21 17 14 13 12 8 10 14 18 23 27 30 32 34 36 39 41 41 42 42
11 13 9 2 8 8 4 6 9 7 5 10 14 15 16 17 14 12 9 39 37 33 30 27 22 19 18 18 15 11 12 16 20 25 27 30 32 33 34 36 38 38 37 38
8 8 22 18 11 20 7 11 13 5 6 9 6 10 11 16 23 8 8 20 37 34 31 28 26 24 23 21 15 12 14 18 22 27 30 33 34 34 35 36 37 36 35 35
17 15 11 10 12 18 15 11 10 4 4 4 6 14 17 28 31 31 19 20 29 34 34 31 30 28 26 21 16 14 15 19 24 29 32 34 35 35 34 34 34 31 32 36
11 13 6 18 12 2 27 18 17 17 16 17 29 31 33 31 35 42 36 32 32 33 32 31 31 30 27 21 18 17 18 21 25 29 32 34 32 31 30 30 31 33 34 36
14 15 10 4 12 35 45 51 48 50 55 49 47 42 37 43 37 38 45 45 43 41 40 37 36 34 28 24 22 21 22 24 24 25 28 29 29 28 27 28 31 35 37 40
6 19 12 19 41 48 53 49 40 21 19 28 35 29 26 32 42 47 49 51 53 49 45 41 38 34 29 27 25 24 23 23 23 25 27 29 30 30 32 33 34 35 34 34
32 23 17 17 26 32 39 25 26 30 44 51 44 48 51 49 50 49 53 54 52 52 48 44 39 36 31 28 26 25 25 24 24 26 26 29 31 32 33 35 36 35 38 42
Wind_Direction_850mb
29 75 54 57 42 33 348 297 292 286 295 292 282 293 295 305 306 312 305 300 299 299 299 292 295 296 256 244 244 243 242 233 229 232 233 233 237 242 248 255 261 265 264 261
156 81 77 103 108 8 358 311 304 301 321 290 296 297 295 308 323 322 314 311 308 305 305 298 292 293 268 245 245 243 241 235 228 230 233 236 238 243 250 256 261 264 263 262
15 71 138 245 238 274 285 268 291 283 313 283 299 282 275 34 327 322 337 336 320 316 308 307 300 283 269 247 244 244 242 235 229 228 233 233 236 243 250 256 261 264 264 262
277 123 217 251 270 227 299 230 257 277 320 320 350 297 274 337 328 346 349 345 331 339 345 354 342 311 283 268 257 244 239 238 229 224 227 231 238 245 256 267 266 268 270 270
76 201 238 271 271 194 292 199 283 282 266 302 150 258 280 347 335 340 344 336 347 354 5 32 28 12 330 259 246 235 234 232 223 222 226 232 241 251 258 267 275 282 286 284
257 211 252 275 286 244 277 304 296 245 248 257 192 269 331 354 331 330 338 349 2 12 12 29 31 38 20 318 235 229 221 219 215 218 223 231 248 257 265 270 281 291 292 287
295 202 224 233 285 181 210 307 318 242 222 330 175 233 357 340 348 328 336 349 349 14 29 26 24 36 34 10 325 245 224 213 214 216 222 236 246 246 254 266 277 283 285 318
349 261 196 168 245 296 244 315 331 308 334 314 162 311 355 349 18 14 8 355 3 1 27 25 25 25 40 22 23 114 163 200 206 206 216 217 222 230 237 242 228 197 175 104
335 286 226 207 208 232 100 300 347 269 237 272 296 209 189 349 358 7 357 348 347 10 14 15 14 20 24 28 46 86 123 155 191 205 214 213 212 212 223 224 232 243 260 270
33 289 234 71 194 231 249 340 241 194 309 304 256 271 304 313 317 10 341 329 339 350 2 9 8 13 22 20 38 63 87 113 140 173 201 202 206 214 198 195 197 217 238 264
269 240 222 246 204 215 186 208 233 280 242 305 314 268 192 212 217 234 257 299 337 351 357 6 9 26 35 18 40 52 69 77 81 95 114 138 143 145 150 168 209 213 273 267
81 307 280 272 111 320 289 274 278 279 185 250 288 271 175 209 222 228 209 237 277 330 345 354 6 18 38 48 39 54 68 73 80 70 62 68 79 84 72 74 42 15 320 313
163 226 296 201 153 143 236 194 233 267 302 234 267 342 183 219 232 230 211 216 240 257 329 345 3 26 30 35 48 58 61 71 74 82 84 81 79 77 63 49 24 12 353 340
195 247 239 258 293 316 262 226 219 205 258 300 247 284 225 221 226 221 216 213 225 266 296 330 346 11 31 42 53 60 61 63 61 54 54 53 48 40 32 22 7 354 345 338
243 269 260 263 269 271 267 266 246 219 232 251 4 261 288 255 223 225 226 215 223 237 242 282 312 341 19 30 42 47 52 52 54 52 45 38 32 23 12 1 355 353 347 340
197 274 301 285 270 252 255 254 242 241 245 252 263 276 266 250 224 217 219 220 232 236 234 268 309 343 354 6 18 30 33 31 33 29 26 22 15 8 3 359 355 351 350 349
215 255 312 272 312 303 272 250 211 216 213 218 218 237 171 202 220 227 226 226 233 236 237 252 276 292 304 325 356 12 17 16 14 12 9 6 5 4 1 357 356 355 352 351
228 215 237 288 313 263 57 133 181 223 247 222 264 249 229 238 241 244 231 228 229 231 237 242 255 263 275 296 315 340 354 358 0 359 358 360 2 360 357 354 352 351 352 351
224 232 259 274 282 291 218 189 190 201 297 223 239 263 252 243 286 268 241 230 228 231 238 239 247 253 266 275 281 301 331 347 351 354 355 355 353 351 347 344 343 345 344 340
184 256 263 267 277 265 79 167 171 158 246 172 213 276 260 196 242 255 251 226 225 229 233 234 245 252 261 270 278 303 326 337 343 346 347 344 341 338 336 336 334 335 334 333
163 200 232 242 269 278 242 150 152 245 93 162 222 301 218 215 234 233 232 218 219 226 226 231 238 244 248 254 265 291 313 327 331 335 336 336 333 331 330 330 328 331 333 334
184 184 203 194 225 267 148 131 211 47 165 192 296 322 281 261 254 251 243 216 212 218 223 231 235 242 248 255 270 288 302 313 322 327 331 331 329 326 326 327 327 332 333 334
232 217 194 214 233 80 196 244 233 256 276 286 294 288 290 276 265 245 242 232 228 228 232 238 241 245 250 260 272 284 294 303 313 324 328 327 326 325 324 324 325 332 338 340
221 195 234 245 242 251 253 252 261 277 277 284 286 287 280 274 273 266 250 241 235 233 234 238 239 244 249 256 265 275 286 297 307 318 321 325 326 326 323 325 327 332 335 337
249 164 217 256 274 276 274 262 262 273 275 299 301 294 293 289 280 271 262 250 242 238 235 235 238 241 246 253 264 274 284 298 310 317 320 327 331 332 331 332 332 334 335 328
209 221 216 238 250 243 264 259 282 292 300 304 296 285 283 285 281 274 267 259 251 239 233 235 239 242 248 255 265 275 286 292 297 303 314 324 330 333 333 331 331 333 334 331